User: anonymous   Login
Location: A�t �Alizem
(31.2076°N, 8.7872°W)
Time: 09:08:19
(UTC+00:00)
Language:

THORAD AGENA D DEB - Orbit

View from above orbital plane
View from above orbital plane
View from above satellite
View from above satellite

Ground track
Ground track

The orbit data is extracted from the following two-line orbital elements,

1 42503U 70025RH  21166.45614263  .00000262  00000-0  28936-3 0  9996
2 42503  99.8872  61.5552 0013187 224.6804 135.3286 13.81912396381529
Epoch (UTC): 15 June 2021 10:56:50
Eccentricity: 0.0013187
inclination: 99.8872°
perigee height: 947 km
apogee height: 967 km
right ascension of ascending node: 61.5552°
argument of perigee: 224.6804°
revolutions per day: 13.81912396
mean anomaly at epoch: 135.3286°
orbit number at epoch: 38152

The dashed part of the orbit path shows where the satellite is in the earth's shadow,  

DLR